| time (UTC) | temp C | wind direction | speed KPH | gust KPH | rain 1hr cm | rain 24hr cm | rain mn cm | humidity % | barometer mb |
| 20260510231105 | 17 | 348 | 0.0 | 1.6 | 0.00 | 0.00 | 0.00 | 49 | 1016.2 |
| 20260510230556 | 16 | 335 | 1.6 | 1.6 | 0.00 | 0.00 | 0.00 | 47 | 1016.0 |
| 20260510230053 | 17 | 284 | 3.2 | 4.8 | 0.00 | 0.00 | 0.00 | 45 | 1016.1 |
| 20260510225548 | 17 | 4 | 1.6 | 1.6 | 0.00 | 0.00 | 0.00 | 52 | 1016.2 |
| 20260510225044 | 16 | 32 | 1.6 | 1.6 | 0.00 | 0.00 | 0.00 | 51 | 1016.2 |
| 20260510224540 | 16 | 23 | 4.8 | 4.8 | 0.00 | 0.00 | 0.00 | 47 | 1016.3 |
| 20260510224037 | 17 | 89 | 0.0 | 0.0 | 0.00 | 0.00 | 0.00 | 50 | 1016.2 |
| 20260510223535 | 16 | 37 | 1.6 | 3.2 | 0.00 | 0.00 | 0.00 | 50 | 1016.3 |
| 20260510223032 | 16 | 24 | 1.6 | 3.2 | 0.00 | 0.00 | 0.00 | 51 | 1016.3 |
| 20260510222529 | 16 | 9 | 1.6 | 1.6 | 0.00 | 0.00 | 0.00 | 54 | 1016.2 |
| 20260510222026 | 16 | 339 | 1.6 | 3.2 | 0.00 | 0.00 | 0.00 | 55 | 1016.2 |
| 20260510221521 | 15 | 25 | 0.0 | 0.0 | 0.00 | 0.00 | 0.00 | 58 | 1016.1 |
| 20260510221018 | 15 | 12 | 3.2 | 3.2 | 0.00 | 0.00 | 0.00 | 56 | 1016.2 |
| 20260510220514 | 15 | 8 | 1.6 | 1.6 | 0.00 | 0.00 | 0.00 | 56 | 1016.0 |
| 20260510220010 | 15 | 325 | 3.2 | 4.8 | 0.00 | 0.00 | 0.00 | 51 | 1016.1 |
| 20260510215507 | 15 | 298 | 1.6 | 3.2 | 0.00 | 0.00 | 0.00 | 52 | 1016.0 |
| 20260510215005 | 16 | 328 | 0.0 | 0.0 | 0.00 | 0.00 | 0.00 | 50 | 1015.8 |
| 20260510214502 | 16 | 288 | 1.6 | 3.2 | 0.00 | 0.00 | 0.00 | 49 | 1015.9 |
| 20260510213958 | 15 | 289 | 1.6 | 1.6 | 0.00 | 0.00 | 0.00 | 49 | 1015.8 |
| 20260510213455 | 15 | 300 | 3.2 | 3.2 | 0.00 | 0.00 | 0.00 | 50 | 1015.7 |
| 20260510212951 | 15 | 311 | 4.8 | 4.8 | 0.00 | 0.00 | 0.00 | 50 | 1015.5 |
| 20260510212449 | 15 | 359 | 3.2 | 3.2 | 0.00 | 0.00 | 0.00 | 55 | 1015.4 |
| 20260510211945 | 15 | 309 | 3.2 | 4.8 | 0.00 | 0.00 | 0.00 | 53 | 1015.6 |
| 20260510211443 | 15 | 305 | 4.8 | 4.8 | 0.00 | 0.00 | 0.00 | 52 | 1015.3 |
| 20260510210942 | 16 | 335 | 4.8 | 4.8 | 0.00 | 0.00 | 0.00 | 52 | 1015.1 |
| 20260510210438 | 17 | 43 | 3.2 | 3.2 | 0.00 | 0.00 | 0.00 | 53 | 1015.1 |
| 20260510205932 | 16 | 32 | 1.6 | 1.6 | 0.00 | 0.00 | 0.00 | 51 | 1015.4 |
| 20260510205427 | 17 | 8 | 3.2 | 3.2 | 0.00 | 0.00 | 0.00 | 51 | 1015.5 |
| 20260510204924 | 16 | 151 | 1.6 | 3.2 | 0.00 | 0.00 | 0.00 | 48 | 1015.4 |
| 20260510204421 | 16 | 56 | 3.2 | 3.2 | 0.00 | 0.00 | 0.00 | 52 | 1015.3 |
| 20260510203917 | 16 | 48 | 1.6 | 3.2 | 0.00 | 0.00 | 0.00 | 51 | 1015.2 |
| 20260510203414 | 16 | 36 | 6.4 | 6.4 | 0.00 | 0.00 | 0.00 | 49 | 1015.3 |
| 20260510202908 | 15 | 32 | 4.8 | 4.8 | 0.00 | 0.00 | 0.00 | 49 | 1015.5 |
| 20260510202404 | 16 | 50 | 3.2 | 3.2 | 0.00 | 0.00 | 0.00 | 48 | 1015.3 |
| 20260510201901 | 16 | 343 | 8.0 | 9.7 | 0.00 | 0.00 | 0.00 | 47 | 1015.6 |
| 20260510201358 | 16 | 298 | 6.4 | 6.4 | 0.00 | 0.00 | 0.00 | 46 | 1015.5 |
| 20260510200855 | 17 | 6 | 3.2 | 3.2 | 0.00 | 0.00 | 0.00 | 49 | 1015.5 |
| 20260510200354 | 17 | 28 | 3.2 | 3.2 | 0.00 | 0.00 | 0.00 | 50 | 1015.5 |
| 20260510195849 | 16 | 50 | 4.8 | 4.8 | 0.00 | 0.00 | 0.00 | 50 | 1015.5 |
| 20260510195346 | 16 | 75 | 8.0 | 11.3 | 0.00 | 0.00 | 0.00 | 48 | 1015.7 |
| 20260510194840 | 16 | 65 | 1.6 | 1.6 | 0.00 | 0.00 | 0.00 | 48 | 1015.7 |
| 20260510194337 | 16 | 25 | 4.8 | 4.8 | 0.00 | 0.00 | 0.00 | 51 | 1015.6 |
| 20260510193833 | 16 | 303 | 1.6 | 1.6 | 0.00 | 0.00 | 0.00 | 50 | 1015.8 |
| 20260510193328 | 17 | 308 | 1.6 | 3.2 | 0.00 | 0.00 | 0.00 | 53 | 1015.5 |
| 20260510192823 | 17 | 27 | 4.8 | 4.8 | 0.00 | 0.00 | 0.00 | 50 | 1015.8 |
| 20260510192319 | 17 | 39 | 3.2 | 6.4 | 0.00 | 0.00 | 0.00 | 53 | 1015.8 |
| 20260510191815 | 16 | 69 | 0.0 | 0.0 | 0.00 | 0.00 | 0.00 | 51 | 1015.8 |
| 20260510191312 | 17 | 12 | 0.0 | 1.6 | 0.00 | 0.00 | 0.00 | 50 | 1015.9 |
| 20260510190810 | 17 | 11 | 3.2 | 3.2 | 0.00 | 0.00 | 0.00 | 52 | 1015.7 |
| 20260510190308 | 16 | 42 | 3.2 | 3.2 | 0.00 | 0.00 | 0.00 | 50 | 1015.4 |
| 20260510185803 | 16 | 36 | 3.2 | 3.2 | 0.00 | 0.00 | 0.00 | 51 | 1015.8 |
| 20260510185305 | 16 | 28 | 1.6 | 1.6 | 0.00 | 0.00 | 0.00 | 52 | 1015.7 |
| 20260510184758 | 16 | 268 | 9.7 | 11.3 | 0.00 | 0.00 | 0.00 | 51 | 1015.5 |
| 20260510184255 | 16 | 299 | 1.6 | 1.6 | 0.00 | 0.00 | 0.00 | 50 | 1015.4 |
| 20260510183754 | 15 | 349 | 3.2 | 4.8 | 0.00 | 0.00 | 0.00 | 55 | 1015.5 |
| 20260510183250 | 15 | 77 | 11.3 | 14.5 | 0.00 | 0.00 | 0.00 | 52 | 1015.6 |
| 20260510182746 | 16 | 5 | 4.8 | 6.4 | 0.00 | 0.00 | 0.00 | 53 | 1015.6 |
| 20260510182242 | 16 | 132 | 1.6 | 1.6 | 0.00 | 0.00 | 0.00 | 54 | 1015.5 |
| 20260510181739 | 16 | 43 | 1.6 | 3.2 | 0.00 | 0.00 | 0.00 | 53 | 1015.7 |
| 20260510181236 | 15 | 63 | 0.0 | 1.6 | 0.00 | 0.00 | 0.00 | 54 | 1015.4 |
| 20260510180732 | 16 | 31 | 1.6 | 3.2 | 0.00 | 0.00 | 0.00 | 52 | 1015.5 |
| 20260510180230 | 16 | 41 | 4.8 | 4.8 | 0.00 | 0.00 | 0.00 | 53 | 1015.7 |
| 20260510175727 | 15 | 49 | 4.8 | 9.7 | 0.00 | 0.00 | 0.00 | 57 | 1015.3 |
| 20260510175222 | 15 | 112 | 3.2 | 3.2 | 0.00 | 0.00 | 0.00 | 55 | 1015.3 |
| 20260510174719 | 15 | 80 | 4.8 | 9.7 | 0.00 | 0.00 | 0.00 | 56 | 1015.0 |
| 20260510174217 | 15 | 95 | 3.2 | 4.8 | 0.00 | 0.00 | 0.00 | 56 | 1015.0 |
| 20260510173713 | 15 | 91 | 4.8 | 6.4 | 0.00 | 0.00 | 0.00 | 55 | 1015.1 |
| 20260510173208 | 15 | 36 | 6.4 | 12.9 | 0.00 | 0.00 | 0.00 | 56 | 1015.3 |
| 20260510172703 | 15 | 63 | 4.8 | 6.4 | 0.00 | 0.00 | 0.00 | 55 | 1015.3 |
| 20260510172200 | 15 | 65 | 3.2 | 6.4 | 0.00 | 0.00 | 0.00 | 59 | 1015.3 |
| 20260510171658 | 15 | 34 | 11.3 | 12.9 | 0.00 | 0.00 | 0.00 | 59 | 1015.2 |
| 20260510171155 | 14 | 118 | 3.2 | 4.8 | 0.00 | 0.00 | 0.00 | 58 | 1015.4 |
| 20260510170651 | 14 | 127 | 8.0 | 9.7 | 0.00 | 0.00 | 0.00 | 58 | 1015.5 |
| 20260510170147 | 14 | 89 | 4.8 | 6.4 | 0.00 | 0.00 | 0.00 | 58 | 1015.4 |
| 20260510165643 | 15 | 70 | 6.4 | 9.7 | 0.00 | 0.00 | 0.00 | 61 | 1015.6 |
| 20260510165139 | 15 | 332 | 1.6 | 1.6 | 0.00 | 0.00 | 0.00 | 67 | 1015.8 |
| 20260510164637 | 14 | 4 | 0.0 | 1.6 | 0.00 | 0.00 | 0.00 | 61 | 1015.7 |
| 20260510164134 | 13 | 54 | 3.2 | 6.4 | 0.00 | 0.00 | 0.00 | 61 | 1015.6 |
| 20260510163629 | 13 | 65 | 4.8 | 6.4 | 0.00 | 0.00 | 0.00 | 60 | 1015.4 |
| 20260510163125 | 13 | 6 | 6.4 | 9.7 | 0.00 | 0.00 | 0.00 | 60 | 1015.6 |
| 20260510162620 | 14 | 26 | 14.5 | 20.9 | 0.00 | 0.00 | 0.00 | 60 | 1015.8 |
| 20260510162117 | 13 | 94 | 4.8 | 6.4 | 0.00 | 0.00 | 0.00 | 62 | 1015.4 |
| 20260510161612 | 13 | 62 | 8.0 | 12.9 | 0.00 | 0.00 | 0.00 | 63 | 1015.5 |
| 20260510161109 | 13 | 67 | 3.2 | 9.7 | 0.00 | 0.00 | 0.00 | 65 | 1015.4 |
| 20260510160606 | 13 | 84 | 6.4 | 11.3 | 0.00 | 0.00 | 0.00 | 65 | 1015.4 |
| 20260510160106 | 13 | 2 | 8.0 | 11.3 | 0.00 | 0.00 | 0.00 | 63 | 1015.4 |
| 20260510155603 | 13 | 33 | 8.0 | 11.3 | 0.00 | 0.00 | 0.00 | 65 | 1015.3 |
| 20260510155059 | 13 | 50 | 4.8 | 6.4 | 0.00 | 0.00 | 0.00 | 66 | 1015.3 |
| 20260510154555 | 13 | 40 | 4.8 | 6.4 | 0.00 | 0.00 | 0.00 | 67 | 1015.1 |
| 20260510154050 | 13 | 74 | 6.4 | 6.4 | 0.00 | 0.00 | 0.00 | 69 | 1015.0 |
| 20260510153545 | 13 | 68 | 4.8 | 4.8 | 0.00 | 0.00 | 0.00 | 70 | 1015.0 |
| 20260510153042 | 13 | 45 | 11.3 | 12.9 | 0.00 | 0.00 | 0.00 | 69 | 1014.9 |
| 20260510152539 | 13 | 29 | 16.1 | 20.9 | 0.00 | 0.00 | 0.00 | 68 | 1015.0 |
| 20260510152035 | 13 | 98 | 4.8 | 4.8 | 0.00 | 0.00 | 0.00 | 70 | 1014.8 |
| 20260510151532 | 13 | 23 | 11.3 | 16.1 | 0.00 | 0.00 | 0.00 | 69 | 1014.9 |
| 20260510151030 | 13 | 100 | 9.7 | 11.3 | 0.00 | 0.00 | 0.00 | 70 | 1014.6 |
| 20260510150524 | 12 | 14 | 3.2 | 4.8 | 0.00 | 0.00 | 0.00 | 71 | 1014.5 |
| 20260510150021 | 12 | 101 | 4.8 | 9.7 | 0.00 | 0.00 | 0.00 | 69 | 1014.4 |
| 20260510145518 | 12 | 22 | 12.9 | 17.7 | 0.00 | 0.00 | 0.00 | 70 | 1014.6 |
| 20260510145014 | 12 | 32 | 6.4 | 9.7 | 0.00 | 0.00 | 0.00 | 71 | 1014.6 |
| 20260510144511 | 12 | 58 | 1.6 | 3.2 | 0.00 | 0.00 | 0.00 | 72 | 1014.4 |
| 20260510144007 | 12 | 72 | 3.2 | 3.2 | 0.00 | 0.00 | 0.00 | 74 | 1014.3 |
| 20260510143502 | 12 | 62 | 3.2 | 6.4 | 0.00 | 0.00 | 0.00 | 73 | 1014.1 |
| 20260510142959 | 12 | 78 | 3.2 | 4.8 | 0.00 | 0.00 | 0.00 | 73 | 1014.1 |
| 20260510142456 | 12 | 33 | 8.0 | 9.7 | 0.00 | 0.00 | 0.00 | 74 | 1014.0 |
| 20260510141952 | 12 | 63 | 11.3 | 16.1 | 0.00 | 0.00 | 0.00 | 74 | 1013.8 |
| 20260510141449 | 12 | 86 | 3.2 | 4.8 | 0.00 | 0.00 | 0.00 | 74 | 1013.6 |
| 20260510140946 | 11 | 53 | 6.4 | 9.7 | 0.00 | 0.00 | 0.00 | 76 | 1013.7 |
| 20260510140442 | 11 | 34 | 4.8 | 4.8 | 0.00 | 0.00 | 0.00 | 76 | 1013.7 |
| 20260510135942 | 11 | 41 | 12.9 | 14.5 | 0.00 | 0.00 | 0.00 | 76 | 1013.7 |
| 20260510135438 | 11 | 27 | 9.7 | 14.5 | 0.00 | 0.00 | 0.00 | 76 | 1013.6 |
| 20260510134935 | 11 | 32 | 4.8 | 11.3 | 0.00 | 0.00 | 0.00 | 77 | 1013.9 |
| 20260510134431 | 11 | 44 | 4.8 | 4.8 | 0.00 | 0.00 | 0.00 | 77 | 1013.7 |
| 20260510133928 | 11 | 37 | 6.4 | 11.3 | 0.00 | 0.00 | 0.00 | 77 | 1013.6 |
| 20260510133424 | 10 | 47 | 6.4 | 6.4 | 0.00 | 0.00 | 0.00 | 78 | 1013.6 |
| 20260510132919 | 10 | 17 | 11.3 | 12.9 | 0.00 | 0.00 | 0.00 | 79 | 1013.5 |
| 20260510132418 | 10 | 18 | 8.0 | 9.7 | 0.00 | 0.00 | 0.00 | 79 | 1013.4 |
| 20260510131914 | 10 | 40 | 6.4 | 9.7 | 0.00 | 0.00 | 0.00 | 78 | 1013.5 |
| 20260510131412 | 11 | 119 | 6.4 | 6.4 | 0.00 | 0.00 | 0.00 | 78 | 1013.3 |
| 20260510130908 | 11 | 84 | 4.8 | 6.4 | 0.00 | 0.00 | 0.00 | 78 | 1013.4 |
| 20260510130406 | 11 | 59 | 4.8 | 6.4 | 0.00 | 0.00 | 0.00 | 78 | 1013.4 |
| 20260510125902 | 10 | 30 | 4.8 | 4.8 | 0.00 | 0.00 | 0.00 | 78 | 1013.2 |
| 20260510125358 | 10 | 45 | 8.0 | 11.3 | 0.00 | 0.00 | 0.00 | 77 | 1013.0 |
| 20260510124855 | 10 | 58 | 4.8 | 6.4 | 0.00 | 0.00 | 0.00 | 77 | 1013.1 |
| 20260510124352 | 10 | 80 | 3.2 | 4.8 | 0.00 | 0.00 | 0.00 | 78 | 1013.2 |
| 20260510123848 | 10 | 23 | 4.8 | 6.4 | 0.00 | 0.00 | 0.00 | 78 | 1012.8 |
| 20260510123343 | 10 | 20 | 3.2 | 4.8 | 0.00 | 0.00 | 0.00 | 78 | 1013.2 |
| 20260510122840 | 10 | 33 | 4.8 | 4.8 | 0.00 | 0.00 | 0.00 | 78 | 1013.1 |
| 20260510122336 | 10 | 49 | 1.6 | 3.2 | 0.00 | 0.00 | 0.00 | 78 | 1012.9 |
| 20260510121832 | 10 | 27 | 4.8 | 4.8 | 0.00 | 0.00 | 0.00 | 78 | 1012.6 |
| 20260510121330 | 10 | 42 | 4.8 | 6.4 | 0.00 | 0.00 | 0.00 | 79 | 1012.4 |
| 20260510120827 | 10 | 38 | 4.8 | 4.8 | 0.00 | 0.00 | 0.00 | 79 | 1012.5 |
| 20260510120324 | 10 | 12 | 6.4 | 9.7 | 0.00 | 0.00 | 0.00 | 79 | 1012.5 |
| 20260510115820 | 10 | 45 | 1.6 | 3.2 | 0.00 | 0.00 | 0.00 | 79 | 1012.3 |
| 20260510115317 | 10 | 38 | 3.2 | 4.8 | 0.00 | 0.00 | 0.00 | 79 | 1012.2 |
| 20260510114813 | 10 | 50 | 3.2 | 3.2 | 0.00 | 0.00 | 0.00 | 80 | 1012.3 |
| 20260510114310 | 10 | 46 | 0.0 | 0.0 | 0.00 | 0.00 | 0.00 | 80 | 1012.2 |
| 20260510113805 | 10 | 46 | 0.0 | 0.0 | 0.00 | 0.00 | 0.00 | 79 | 1012.0 |
| 20260510113302 | 10 | 46 | 1.6 | 1.6 | 0.00 | 0.00 | 0.00 | 79 | 1011.8 |
| 20260510112759 | 10 | 52 | 1.6 | 3.2 | 0.00 | 0.00 | 0.00 | 79 | 1011.6 |
| 20260510112256 | 10 | 54 | 1.6 | 3.2 | 0.00 | 0.00 | 0.00 | 79 | 1011.5 |
| 20260510111751 | 10 | 57 | 1.6 | 3.2 | 0.00 | 0.00 | 0.00 | 79 | 1011.5 |
| 20260510111249 | 10 | 54 | 1.6 | 1.6 | 0.00 | 0.00 | 0.00 | 79 | 1011.4 |
| 20260510110748 | 10 | 50 | 1.6 | 3.2 | 0.00 | 0.00 | 0.00 | 80 | 1011.4 |
| 20260510110246 | 10 | 44 | 0.0 | 0.0 | 0.00 | 0.00 | 0.00 | 80 | 1011.5 |
| 20260510105746 | 10 | 44 | 0.0 | 0.0 | 0.00 | 0.00 | 0.00 | 79 | 1011.4 |
| 20260510105241 | 10 | 50 | 1.6 | 3.2 | 0.00 | 0.00 | 0.00 | 78 | 1010.6 |
| 20260510104737 | 10 | 35 | 4.8 | 4.8 | 0.00 | 0.00 | 0.00 | 78 | 1010.7 |
| 20260510104235 | 10 | 57 | 1.6 | 3.2 | 0.00 | 0.00 | 0.00 | 78 | 1010.9 |
| 20260510103731 | 10 | 51 | 0.0 | 0.0 | 0.00 | 0.00 | 0.00 | 78 | 1010.9 |
| 20260510103229 | 10 | 50 | 0.0 | 1.6 | 0.00 | 0.00 | 0.00 | 77 | 1011.0 |
| 20260510102728 | 10 | 46 | 1.6 | 1.6 | 0.00 | 0.00 | 0.00 | 77 | 1010.7 |
| 20260510102224 | 10 | 46 | 1.6 | 1.6 | 0.00 | 0.00 | 0.00 | 76 | 1010.7 |
| 20260510101722 | 10 | 50 | 1.6 | 3.2 | 0.00 | 0.00 | 0.00 | 76 | 1010.5 |
| 20260510101220 | 10 | 38 | 3.2 | 6.4 | 0.00 | 0.00 | 0.00 | 77 | 1010.6 |
| 20260510100716 | 10 | 41 | 3.2 | 3.2 | 0.00 | 0.00 | 0.00 | 77 | 1010.3 |
| 20260510100214 | 10 | 42 | 3.2 | 4.8 | 0.00 | 0.00 | 0.00 | 77 | 1010.2 |
| 20260510095709 | 10 | 37 | 4.8 | 4.8 | 0.00 | 0.00 | 0.00 | 77 | 1010.3 |
| 20260510095205 | 10 | 57 | 1.6 | 3.2 | 0.00 | 0.00 | 0.00 | 78 | 1010.2 |
| 20260510094703 | 10 | 36 | 6.4 | 6.4 | 0.00 | 0.00 | 0.00 | 78 | 1009.8 |
| 20260510094159 | 10 | 48 | 3.2 | 3.2 | 0.00 | 0.00 | 0.00 | 78 | 1009.9 |
| 20260510093655 | 10 | 35 | 4.8 | 4.8 | 0.00 | 0.00 | 0.00 | 79 | 1010.0 |
| 20260510093153 | 10 | 36 | 3.2 | 4.8 | 0.00 | 0.00 | 0.00 | 80 | 1009.7 |
| 20260510092649 | 10 | 44 | 4.8 | 6.4 | 0.00 | 0.00 | 0.00 | 80 | 1009.6 |
| 20260510092144 | 10 | 38 | 3.2 | 4.8 | 0.00 | 0.00 | 0.00 | 80 | 1009.7 |
| 20260510091641 | 10 | 54 | 3.2 | 4.8 | 0.00 | 0.00 | 0.00 | 80 | 1009.8 |
| 20260510091137 | 10 | 38 | 4.8 | 4.8 | 0.00 | 0.00 | 0.00 | 80 | 1009.4 |
| 20260510090634 | 11 | 39 | 6.4 | 6.4 | 0.00 | 0.00 | 0.00 | 80 | 1009.2 |
| 20260510090130 | 11 | 38 | 4.8 | 6.4 | 0.00 | 0.00 | 0.00 | 79 | 1009.3 |
| 20260510085625 | 11 | 22 | 6.4 | 9.7 | 0.00 | 0.00 | 0.00 | 80 | 1009.5 |
| 20260510085121 | 11 | 33 | 4.8 | 4.8 | 0.00 | 0.00 | 0.00 | 80 | 1009.3 |
| 20260510084612 | 11 | 33 | 6.4 | 9.7 | 0.00 | 0.00 | 0.00 | 81 | 1009.4 |
| 20260510084109 | 11 | 41 | 1.6 | 1.6 | 0.00 | 0.00 | 0.00 | 81 | 1009.3 |
| 20260510083606 | 11 | 34 | 6.4 | 9.7 | 0.00 | 0.00 | 0.00 | 81 | 1008.9 |
| 20260510083102 | 11 | 31 | 4.8 | 6.4 | 0.00 | 0.00 | 0.00 | 81 | 1009.1 |
| 20260510082559 | 11 | 7 | 4.8 | 6.4 | 0.00 | 0.00 | 0.00 | 82 | 1009.1 |
| 20260510082054 | 11 | 47 | 3.2 | 4.8 | 0.00 | 0.00 | 0.00 | 82 | 1009.3 |
| 20260510081549 | 11 | 38 | 3.2 | 4.8 | 0.00 | 0.00 | 0.00 | 82 | 1009.0 |
| 20260510081045 | 11 | 44 | 3.2 | 3.2 | 0.00 | 0.00 | 0.00 | 82 | 1009.0 |
| 20260510080544 | 12 | 65 | 1.6 | 1.6 | 0.00 | 0.00 | 0.00 | 82 | 1008.9 |
| 20260510080042 | 12 | 35 | 4.8 | 6.4 | 0.00 | 0.00 | 0.00 | 81 | 1008.9 |
| 20260510075539 | 12 | 43 | 3.2 | 3.2 | 0.00 | 0.00 | 0.00 | 80 | 1008.8 |
| 20260510075036 | 12 | 36 | 4.8 | 4.8 | 0.00 | 0.00 | 0.00 | 80 | 1008.7 |
| 20260510074533 | 12 | 47 | 1.6 | 3.2 | 0.00 | 0.00 | 0.00 | 80 | 1008.6 |
| 20260510074028 | 12 | 55 | 6.4 | 6.4 | 0.00 | 0.00 | 0.00 | 80 | 1008.6 |
| 20260510073524 | 12 | 23 | 4.8 | 4.8 | 0.00 | 0.00 | 0.00 | 80 | 1008.4 |
| 20260510073022 | 12 | 39 | 4.8 | 4.8 | 0.00 | 0.00 | 0.00 | 80 | 1008.5 |
| 20260510072519 | 12 | 48 | 6.4 | 6.4 | 0.00 | 0.00 | 0.00 | 82 | 1008.5 |
| 20260510072014 | 12 | 95 | 0.0 | 0.0 | 0.00 | 0.00 | 0.00 | 83 | 1008.5 |
| 20260510071510 | 12 | 274 | 0.0 | 0.0 | 0.00 | 0.00 | 0.00 | 84 | 1008.4 |
| 20260510071009 | 12 | 274 | 0.0 | 1.6 | 0.00 | 0.00 | 0.00 | 85 | 1008.3 |
| 20260510070505 | 12 | 274 | 0.0 | 0.0 | 0.00 | 0.00 | 0.00 | 85 | 1008.3 |
| 20260510070002 | 12 | 274 | 0.0 | 1.6 | 0.00 | 0.00 | 0.00 | 85 | 1008.3 |
| 20260510065458 | 12 | 274 | 1.6 | 1.6 | 0.00 | 0.00 | 0.00 | 85 | 1008.3 |
| 20260510064954 | 12 | 274 | 1.6 | 1.6 | 0.00 | 0.00 | 0.00 | 85 | 1008.1 |
| 20260510064452 | 13 | 289 | 3.2 | 3.2 | 0.00 | 0.00 | 0.00 | 86 | 1008.1 |
| 20260510063948 | 13 | 289 | 1.6 | 1.6 | 0.00 | 0.00 | 0.00 | 85 | 1007.8 |
| 20260510063444 | 13 | 12 | 1.6 | 3.2 | 0.00 | 0.00 | 0.00 | 85 | 1007.9 |
| 20260510062942 | 13 | 23 | 1.6 | 1.6 | 0.00 | 0.00 | 0.00 | 85 | 1007.8 |
| 20260510062436 | 13 | 338 | 3.2 | 3.2 | 0.00 | 0.00 | 0.00 | 85 | 1008.0 |
| 20260510061932 | 14 | 304 | 9.7 | 12.9 | 0.00 | 0.00 | 0.00 | 84 | 1007.9 |
| 20260510061429 | 14 | 293 | 3.2 | 4.8 | 0.00 | 0.00 | 0.00 | 83 | 1007.8 |
| 20260510060925 | 15 | 293 | 4.8 | 4.8 | 0.00 | 0.00 | 0.00 | 83 | 1007.8 |
| 20260510060422 | 15 | 283 | 14.5 | 16.1 | 0.00 | 0.00 | 0.00 | 82 | 1007.7 |
| 20260510055918 | 15 | 282 | 9.7 | 11.3 | 0.00 | 0.00 | 0.00 | 83 | 1007.8 |
| 20260510055415 | 15 | 305 | 9.7 | 11.3 | 0.00 | 0.00 | 0.00 | 82 | 1007.7 |
| 20260510054912 | 15 | 301 | 12.9 | 14.5 | 0.00 | 0.00 | 0.00 | 81 | 1007.5 |
| 20260510054408 | 15 | 297 | 12.9 | 14.5 | 0.00 | 0.00 | 0.00 | 81 | 1007.2 |
| 20260510053902 | 15 | 295 | 12.9 | 16.1 | 0.00 | 0.00 | 0.00 | 81 | 1007.2 |
| 20260510053359 | 15 | 306 | 8.0 | 9.7 | 0.00 | 0.00 | 0.00 | 82 | 1007.3 |
| 20260510052855 | 15 | 296 | 11.3 | 11.3 | 0.00 | 0.00 | 0.00 | 83 | 1007.2 |
| 20260510052351 | 15 | 278 | 6.4 | 6.4 | 0.00 | 0.00 | 0.00 | 83 | 1007.2 |
| 20260510051847 | 15 | 268 | 6.4 | 6.4 | 0.00 | 0.00 | 0.00 | 85 | 1007.1 |
| 20260510051344 | 14 | 272 | 8.0 | 9.7 | 0.00 | 0.00 | 0.00 | 86 | 1006.9 |
| 20260510050841 | 13 | 287 | 6.4 | 6.4 | 0.00 | 0.00 | 0.00 | 89 | 1006.8 |
| 20260510050338 | 13 | 278 | 4.8 | 4.8 | 0.00 | 0.00 | 0.00 | 90 | 1006.6 |
| 20260510045835 | 13 | 234 | 1.6 | 1.6 | 0.00 | 0.00 | 0.00 | 90 | 1006.8 |
| 20260510045331 | 13 | 215 | 3.2 | 4.8 | 0.00 | 0.00 | 0.00 | 90 | 1006.6 |
| 20260510044828 | 13 | 223 | 3.2 | 3.2 | 0.00 | 0.00 | 0.00 | 90 | 1006.3 |
| 20260510044325 | 13 | 206 | 3.2 | 3.2 | 0.00 | 0.00 | 0.00 | 90 | 1006.4 |
| 20260510043821 | 13 | 230 | 4.8 | 4.8 | 0.00 | 0.00 | 0.00 | 89 | 1006.4 |
| 20260510043317 | 13 | 203 | 3.2 | 3.2 | 0.00 | 0.00 | 0.00 | 89 | 1006.2 |
| 20260510042816 | 13 | 216 | 3.2 | 3.2 | 0.00 | 0.00 | 0.00 | 89 | 1006.2 |
| 20260510042311 | 13 | 227 | 3.2 | 4.8 | 0.00 | 0.00 | 0.00 | 89 | 1006.4 |
| 20260510041808 | 13 | 217 | 3.2 | 4.8 | 0.00 | 0.00 | 0.00 | 89 | 1006.3 |
| 20260510041305 | 13 | 179 | 3.2 | 3.2 | 0.00 | 0.00 | 0.00 | 89 | 1006.4 |
| 20260510040803 | 13 | 221 | 4.8 | 4.8 | 0.00 | 0.00 | 0.00 | 90 | 1006.2 |
| 20260510040259 | 13 | 191 | 0.0 | 0.0 | 0.00 | 0.00 | 0.00 | 90 | 1006.1 |
| 20260510035755 | 13 | 192 | 1.6 | 1.6 | 0.00 | 0.46 | 0.46 | 89 | 1006.2 |
| 20260510035250 | 13 | 176 | 3.2 | 3.2 | 0.30 | 0.46 | 0.46 | 88 | 1006.1 |
| 20260510034741 | 14 | 262 | 3.2 | 4.8 | 1.50 | 0.46 | 0.46 | 87 | 1006.3 |
| 20260510034239 | 14 | 309 | 6.4 | 6.4 | 1.50 | 0.41 | 0.41 | 86 | 1006.4 |
| 20260510033735 | 15 | 286 | 20.9 | 24.1 | 0.79 | 0.28 | 0.28 | 85 | 1007.0 |
| 20260510033233 | 16 | 289 | 24.1 | 29.0 | 0.30 | 0.18 | 0.18 | 80 | 1006.8 |
| 20260510032729 | 16 | 295 | 16.1 | 24.1 | 0.18 | 0.15 | 0.15 | 76 | 1006.5 |
| 20260510032225 | 16 | 236 | 8.0 | 9.7 | 0.00 | 0.13 | 0.13 | 79 | 1006.3 |
| 20260510031720 | 16 | 216 | 4.8 | 4.8 | 0.00 | 0.13 | 0.13 | 78 | 1005.6 |
| 20260510031216 | 15 | 212 | 3.2 | 3.2 | 0.00 | 0.13 | 0.13 | 79 | 1005.5 |
| 20260510030715 | 15 | 164 | 1.6 | 1.6 | 0.00 | 0.13 | 0.13 | 80 | 1005.7 |
| 20260510030214 | 15 | 155 | 1.6 | 3.2 | 0.00 | 0.13 | 0.13 | 82 | 1005.6 |
| 20260510025711 | 14 | 153 | 1.6 | 1.6 | 0.00 | 0.13 | 0.13 | 84 | 1005.7 |
| 20260510025208 | 14 | 153 | 1.6 | 1.6 | 0.00 | 0.13 | 0.13 | 84 | 1005.6 |
| 20260510024705 | 15 | 153 | 1.6 | 1.6 | 0.00 | 0.13 | 0.13 | 84 | 1005.7 |
| 20260510024201 | 15 | 152 | 1.6 | 1.6 | 0.00 | 0.13 | 0.13 | 83 | 1005.8 |
| 20260510023657 | 15 | 152 | 1.6 | 1.6 | 0.00 | 0.13 | 0.13 | 82 | 1005.6 |
| 20260510023154 | 15 | 136 | 1.6 | 1.6 | 0.00 | 0.13 | 0.13 | 82 | 1005.7 |
| 20260510022650 | 15 | 130 | 0.0 | 1.6 | 0.00 | 0.13 | 0.13 | 83 | 1005.7 |
| 20260510022145 | 14 | 106 | 0.0 | 1.6 | 0.00 | 0.13 | 0.13 | 83 | 1005.8 |
| 20260510021640 | 14 | 106 | 0.0 | 0.0 | 0.00 | 0.13 | 0.13 | 84 | 1005.8 |
| 20260510021137 | 14 | 114 | 0.0 | 0.0 | 0.00 | 0.13 | 0.13 | 84 | 1005.6 |
| 20260510020632 | 14 | 128 | 0.0 | 0.0 | 0.00 | 0.13 | 0.13 | 83 | 1005.6 |
| 20260510020127 | 14 | 129 | 0.0 | 0.0 | 0.00 | 0.13 | 0.13 | 82 | 1005.4 |
| 20260510015624 | 15 | 129 | 0.0 | 0.0 | 0.00 | 0.13 | 0.13 | 82 | 1005.2 |
| 20260510015121 | 15 | 129 | 0.0 | 0.0 | 0.00 | 0.13 | 0.13 | 81 | 1005.3 |
| 20260510014616 | 15 | 129 | 0.0 | 0.0 | 0.00 | 0.13 | 0.13 | 81 | 1005.2 |
| 20260510014114 | 15 | 129 | 1.6 | 1.6 | 0.00 | 0.13 | 0.13 | 81 | 1005.2 |
| 20260510013613 | 15 | 142 | 3.2 | 3.2 | 0.00 | 0.13 | 0.13 | 81 | 1004.9 |
| 20260510013109 | 15 | 102 | 1.6 | 1.6 | 0.00 | 0.13 | 0.13 | 81 | 1004.8 |
| 20260510012608 | 15 | 102 | 0.0 | 1.6 | 0.00 | 0.13 | 0.13 | 80 | 1004.8 |
| 20260510012105 | 15 | 102 | 1.6 | 3.2 | 0.00 | 0.13 | 0.13 | 80 | 1004.6 |
| 20260510011604 | 15 | 102 | 0.0 | 1.6 | 0.00 | 0.13 | 0.13 | 81 | 1004.9 |
| 20260510011101 | 15 | 102 | 0.0 | 1.6 | 0.00 | 0.13 | 0.13 | 81 | 1004.6 |
| 20260510010557 | 15 | 102 | 0.0 | 0.0 | 0.00 | 0.13 | 0.13 | 81 | 1004.8 |
| 20260510010055 | 15 | 89 | 1.6 | 1.6 | 0.00 | 0.13 | 0.13 | 80 | 1004.9 |
| 20260510005550 | 15 | 89 | 1.6 | 3.2 | 0.00 | 0.13 | 0.13 | 79 | 1004.7 |
| 20260510005048 | 15 | 53 | 1.6 | 1.6 | 0.00 | 0.13 | 0.13 | 78 | 1004.5 |
| 20260510004546 | 15 | 53 | 0.0 | 0.0 | 0.00 | 0.13 | 0.13 | 78 | 1004.6 |
| 20260510004044 | 15 | 52 | 0.0 | 0.0 | 0.00 | 0.13 | 0.13 | 79 | 1004.6 |
| 20260510003540 | 15 | 52 | 0.0 | 0.0 | 0.00 | 0.13 | 0.13 | 79 | 1004.2 |
| 20260510003035 | 16 | 52 | 1.6 | 1.6 | 0.00 | 0.13 | 0.13 | 79 | 1004.6 |
| 20260510002531 | 16 | 52 | 0.0 | 0.0 | 0.00 | 0.13 | 0.13 | 78 | 1004.5 |
| 20260510002028 | 16 | 52 | 0.0 | 0.0 | 0.00 | 0.13 | 0.13 | 78 | 1004.2 |
| 20260510001525 | 16 | 52 | 0.0 | 0.0 | 0.00 | 0.13 | 0.13 | 77 | 1004.2 |
| 20260510001024 | 16 | 50 | 1.6 | 1.6 | 0.00 | 0.13 | 0.13 | 77 | 1004.3 |
| 20260510000518 | 16 | 86 | 1.6 | 1.6 | 0.00 | 0.13 | 0.13 | 76 | 1004.3 |
| 20260510000016 | 16 | 132 | 1.6 | 1.6 | 0.00 | 0.13 | 0.13 | 75 | 1004.0 |
| 20260509235513 | 17 | 31 | 4.8 | 4.8 | 0.00 | 0.13 | 0.13 | 72 | 1003.9 |
| 20260509235009 | 20 | 359 | 1.6 | 1.6 | 0.00 | 0.13 | 0.13 | 68 | 1004.3 |
| 20260509234506 | 21 | 259 | 9.7 | 12.9 | 0.00 | 0.13 | 0.13 | 57 | 1003.6 |
| 20260509234004 | 21 | 237 | 19.3 | 27.4 | 0.00 | 0.13 | 0.13 | 56 | 1003.5 |
| 20260509233501 | 21 | 282 | 20.9 | 24.1 | 0.00 | 0.13 | 0.13 | 55 | 1003.5 |
| 20260509232957 | 21 | 239 | 9.7 | 11.3 | 0.00 | 0.13 | 0.13 | 57 | 1003.5 |
| 20260509232455 | 21 | 261 | 12.9 | 17.7 | 0.00 | 0.13 | 0.13 | 56 | 1003.5 |
| 20260509231950 | 21 | 281 | 16.1 | 20.9 | 0.00 | 0.13 | 0.13 | 56 | 1003.2 |
| 20260509231447 | 21 | 235 | 12.9 | 16.1 | 0.00 | 0.13 | 0.13 | 56 | 1003.2 |